When you browse on this site, cookies collect data to enhance your experience and personalize the content and advertising you see.
Visit our Privacy Policy to learn more. By continuing to use the site, you agree to this use of cookies and data.
  • In Germany
  • List of Countries
  • For 7 days
  • Water Temperature
  • Weather Map
  • Weather Widgets
  • user-avatar
    Login

    Hourly Weather Beverly

    Today, 25 January, Saturday

    Time Temperature Precipitation Wind Pressure Humidity
    00:00 +3°C° 0 mm 3 mps 763 mmHg 92%
    01:00 +3°C° 0 mm 3 mps 763 mmHg 93%
    02:00 +3°C° 0 mm 3 mps 763 mmHg 93%
    03:00 +3°C° 0 mm 3 mps 762 mmHg 94%
    04:00 +3°C° 0 mm 3 mps 762 mmHg 93%
    05:00 +3°C° 0 mm 3 mps 762 mmHg 92%
    06:00 +4°C° 0 mm 3 mps 761 mmHg 91%
    07:00 +4°C° 0 mm 3 mps 762 mmHg 90%
    08:00 +4°C° 0 mm 4 mps 762 mmHg 90%
    09:00 +5°C° 0 mm 4 mps 762 mmHg 89%
    10:00 +5°C° 0 mm 4 mps 762 mmHg 86%
    11:00 +6°C° 0 mm 5 mps 761 mmHg 84%
    12:00 +6°C° 0 mm 5 mps 761 mmHg 81%
    13:00 +6°C° 0 mm 5 mps 761 mmHg 81%
    14:00 +6°C° 0 mm 5 mps 760 mmHg 80%
    15:00 +7°C° 0 mm 5 mps 760 mmHg 79%
    16:00 +6°C° 0 mm 5 mps 760 mmHg 83%
    17:00 +5°C° 0 mm 5 mps 760 mmHg 86%
    18:00 +4°C° 0 mm 4 mps 759 mmHg 90%
    19:00 +3°C° 0 mm 5 mps 759 mmHg 91%
    20:00 +3°C° 0 mm 5 mps 759 mmHg 93%
    21:00 +3°C° 0 mm 5 mps 759 mmHg 94%
    22:00 +3°C° 0 mm 5 mps 758 mmHg 94%
    23:00 +4°C° 0 mm 6 mps 758 mmHg 93%

    Tomorrow, 26 January, Sunday

    Time Temperature Precipitation Wind Pressure Humidity
    00:00 +4°C° 0 mm 6 mps 757 mmHg 93%
    01:00 +4°C° 0 mm 6 mps 757 mmHg 92%
    02:00 +4°C° 0 mm 6 mps 756 mmHg 92%
    03:00 +4°C° 0 mm 6 mps 756 mmHg 91%
    04:00 +4°C° 0 mm 6 mps 755 mmHg 92%
    05:00 +5°C° 0 mm 6 mps 755 mmHg 92%
    06:00 +5°C° 0 mm 7 mps 754 mmHg 92%
    07:00 +5°C° 0 mm 6 mps 754 mmHg 90%
    08:00 +5°C° 0 mm 6 mps 754 mmHg 87%
    09:00 +5°C° 0 mm 6 mps 754 mmHg 85%
    10:00 +6°C° 0 mm 7 mps 753 mmHg 81%
    11:00 +6°C° 0 mm 8 mps 753 mmHg 76%
    12:00 +7°C° 0 mm 8 mps 752 mmHg 72%
    13:00 +6°C° 0.5 mm 8 mps 752 mmHg 77%
    14:00 +6°C° 0.5 mm 7 mps 751 mmHg 83%
    15:00 +6°C° 0.5 mm 7 mps 751 mmHg 88%
    16:00 +6°C° 0.3 mm 7 mps 750 mmHg 89%
    17:00 +7°C° 0.3 mm 6 mps 750 mmHg 90%
    18:00 +7°C° 0.3 mm 6 mps 750 mmHg 91%
    19:00 +7°C° 0 mm 5 mps 750 mmHg 90%
    20:00 +6°C° 0 mm 5 mps 750 mmHg 89%
    21:00 +6°C° 0 mm 4 mps 749 mmHg 88%
    22:00 +5°C° 0 mm 4 mps 749 mmHg 89%
    23:00 +4°C° 0 mm 4 mps 749 mmHg 90%

    Day after tomorrow, 27 January, Monday

    Time Temperature Precipitation Wind Pressure Humidity
    00:00 +3°C° 0 mm 3 mps 749 mmHg 91%
    01:00 +3°C° 0 mm 3 mps 749 mmHg 91%
    02:00 +1°C° 0 mm 4 mps 749 mmHg 91%
    03:00 +1°C° 0 mm 4 mps 750 mmHg 91%
    04:00 +1°C° 0 mm 5 mps 749 mmHg 89%
    05:00 +1°C° 0 mm 6 mps 749 mmHg 87%
    06:00 +1°C° 0 mm 6 mps 748 mmHg 85%
    07:00 +1°C° 0 mm 6 mps 748 mmHg 86%
    08:00 +2°C° 0 mm 6 mps 748 mmHg 88%
    09:00 +2°C° 0 mm 6 mps 748 mmHg 89%
    10:00 +3°C° 0.1 mm 6 mps 748 mmHg 84%
    11:00 +4°C° 0.1 mm 7 mps 747 mmHg 79%
    12:00 +5°C° 0.1 mm 7 mps 747 mmHg 73%
    13:00 +5°C° 0 mm 6 mps 747 mmHg 75%
    14:00 +5°C° 0 mm 5 mps 746 mmHg 76%
    15:00 +5°C° 0 mm 4 mps 746 mmHg 77%
    16:00 +4°C° 0 mm 4 mps 745 mmHg 80%
    17:00 +4°C° 0 mm 4 mps 745 mmHg 83%
    18:00 +3°C° 0 mm 4 mps 745 mmHg 86%
    19:00 +3°C° 0 mm 4 mps 744 mmHg 88%
    20:00 +1°C° 0 mm 4 mps 743 mmHg 90%
    21:00 +1°C° 0 mm 4 mps 743 mmHg 92%
    22:00 +1°C° 0 mm 4 mps 742 mmHg 92%
    23:00 +1°C° 0 mm 4 mps 741 mmHg 92%

    28 January, Tuesday

    Time Temperature Precipitation Wind Pressure Humidity
    00:00 +1°C° 0 mm 5 mps 741 mmHg 92%
    01:00 +1°C° 0 mm 5 mps 740 mmHg 91%
    02:00 +1°C° 0 mm 5 mps 740 mmHg 90%
    03:00 +1°C° 0 mm 5 mps 740 mmHg 89%
    04:00 0°C° 0 mm 5 mps 740 mmHg 87%
    05:00 0°C° 0 mm 5 mps 741 mmHg 84%
    06:00 0°C° 0 mm 5 mps 741 mmHg 81%
    07:00 -1°C° 0 mm 5 mps 741 mmHg 80%
    08:00 -1°C° 0 mm 5 mps 742 mmHg 78%
    09:00 -1°C° 0 mm 5 mps 742 mmHg 76%
    10:00 -1°C° 0 mm 6 mps 742 mmHg 75%
    11:00 +1°C° 0 mm 6 mps 742 mmHg 73%
    12:00 +2°C° 0 mm 7 mps 743 mmHg 72%
    13:00 +2°C° 0.1 mm 7 mps 742 mmHg 72%
    14:00 +3°C° 0.1 mm 6 mps 742 mmHg 71%
    15:00 +3°C° 0.1 mm 6 mps 742 mmHg 71%
    16:00 +2°C° 0 mm 6 mps 742 mmHg 73%
    17:00 +1°C° 0 mm 6 mps 743 mmHg 75%
    18:00 -1°C° 0 mm 6 mps 743 mmHg 77%
    19:00 -1°C° 0 mm 6 mps 743 mmHg 77%
    20:00 -1°C° 0 mm 6 mps 743 mmHg 76%
    21:00 0°C° 0 mm 5 mps 743 mmHg 76%
    22:00 -1°C° 0 mm 5 mps 744 mmHg 79%
    23:00 -1°C° 0 mm 5 mps 744 mmHg 83%

    29 January, Wednesday

    Time Temperature Precipitation Wind Pressure Humidity
    00:00 -2°C° 0 mm 5 mps 744 mmHg 86%
    01:00 -1°C° 0 mm 5 mps 745 mmHg 87%
    02:00 -1°C° 0 mm 5 mps 745 mmHg 89%
    03:00 -1°C° 0 mm 5 mps 746 mmHg 91%
    04:00 -1°C° 0 mm 5 mps 747 mmHg 89%
    05:00 0°C° 0 mm 5 mps 747 mmHg 88%
    06:00 -1°C° 0 mm 6 mps 748 mmHg 86%
    07:00 -1°C° 0 mm 6 mps 749 mmHg 84%
    08:00 -1°C° 0 mm 6 mps 749 mmHg 82%
    09:00 0°C° 0 mm 7 mps 750 mmHg 80%
    10:00 +2°C° 0 mm 7 mps 750 mmHg 76%
    11:00 +3°C° 0 mm 7 mps 751 mmHg 71%
    12:00 +4°C° 0 mm 8 mps 752 mmHg 67%
    13:00 +4°C° 0 mm 8 mps 752 mmHg 67%
    14:00 +2°C° 0 mm 8 mps 752 mmHg 67%
    15:00 +3°C° 0 mm 7 mps 753 mmHg 67%
    16:00 +3°C° 0 mm 7 mps 754 mmHg 71%
    17:00 +2°C° 0 mm 6 mps 754 mmHg 74%
    18:00 +1°C° 0 mm 6 mps 755 mmHg 78%
    19:00 +1°C° 0 mm 6 mps 755 mmHg 80%
    20:00 0°C° 0 mm 5 mps 756 mmHg 82%
    21:00 0°C° 0 mm 5 mps 756 mmHg 84%
    22:00 +1°C° 0 mm 5 mps 756 mmHg 84%
    23:00 +1°C° 0 mm 5 mps 757 mmHg 84%

    30 January, Thursday

    Time Temperature Precipitation Wind Pressure Humidity
    00:00 +1°C° 0 mm 5 mps 757 mmHg 84%
    01:00 +2°C° 0 mm 6 mps 757 mmHg 84%
    02:00 +2°C° 0 mm 6 mps 756 mmHg 84%
    03:00 +2°C° 0 mm 6 mps 756 mmHg 84%
    04:00 +2°C° 0 mm 6 mps 756 mmHg 85%
    05:00 +2°C° 0 mm 6 mps 756 mmHg 86%
    06:00 +3°C° 0 mm 5 mps 756 mmHg 87%
    07:00 +3°C° 0 mm 6 mps 756 mmHg 87%
    08:00 +3°C° 0 mm 6 mps 756 mmHg 86%
    09:00 +3°C° 0 mm 6 mps 756 mmHg 85%
    10:00 +4°C° 0 mm 6 mps 756 mmHg 82%
    11:00 +4°C° 0 mm 6 mps 756 mmHg 78%
    12:00 +5°C° 0 mm 7 mps 756 mmHg 74%
    13:00 +5°C° 0 mm 7 mps 755 mmHg 75%
    14:00 +5°C° 0 mm 6 mps 754 mmHg 77%
    15:00 +5°C° 0 mm 6 mps 754 mmHg 78%
    16:00 +5°C° 0 mm 6 mps 753 mmHg 81%
    17:00 +4°C° 0 mm 6 mps 753 mmHg 84%
    18:00 +4°C° 0 mm 6 mps 753 mmHg 87%
    19:00 +4°C° 0 mm 6 mps 752 mmHg 87%
    20:00 +4°C° 0 mm 6 mps 751 mmHg 86%
    21:00 +4°C° 0 mm 6 mps 751 mmHg 86%
    22:00 +4°C° 0.1 mm 6 mps 750 mmHg 87%
    23:00 +5°C° 0.1 mm 6 mps 749 mmHg 89%
    Show more